| time (UTC) | temp C | wind direction | speed KPH | gust KPH | rain 1hr cm | rain 24hr cm | rain mn cm | humidity % | barometer mb |
| 20260504231555 | 19 | 213 | 0.0 | 0.0 | 0.00 | 0.00 | 0.00 | 28 | 1005.0 |
| 20260504231049 | 19 | 214 | 0.0 | 0.0 | 0.00 | 0.00 | 0.00 | 28 | 1004.9 |
| 20260504230541 | 19 | 213 | 0.0 | 0.0 | 0.00 | 0.00 | 0.00 | 27 | 1004.8 |
| 20260504230035 | 19 | 228 | 0.0 | 3.2 | 0.00 | 0.00 | 0.00 | 26 | 1004.7 |
| 20260504225529 | 20 | 246 | 0.0 | 3.2 | 0.00 | 0.00 | 0.00 | 26 | 1004.7 |
| 20260504225023 | 20 | 186 | 0.0 | 3.2 | 0.00 | 0.00 | 0.00 | 26 | 1004.6 |
| 20260504224517 | 20 | 243 | 0.0 | 9.7 | 0.00 | 0.00 | 0.00 | 26 | 1004.5 |
| 20260504224011 | 20 | 248 | 1.6 | 9.7 | 0.00 | 0.00 | 0.00 | 25 | 1004.6 |
| 20260504223505 | 20 | 185 | 1.6 | 8.0 | 0.00 | 0.00 | 0.00 | 25 | 1004.5 |
| 20260504222959 | 20 | 227 | 1.6 | 9.7 | 0.00 | 0.00 | 0.00 | 25 | 1004.6 |
| 20260504222453 | 20 | 192 | 1.6 | 9.7 | 0.00 | 0.00 | 0.00 | 25 | 1004.5 |
| 20260504222205 | 20 | 208 | 0.0 | 0.0 | 0.00 | 0.00 | 0.00 | 24 | 1004.5 |
| 20260504221441 | 21 | 338 | 0.0 | 0.0 | 0.00 | 0.00 | 0.00 | 25 | 1004.5 |
| 20260504220935 | 21 | 234 | 0.0 | 0.0 | 0.00 | 0.00 | 0.00 | 25 | 1004.6 |
| 20260504220429 | 21 | 296 | 1.6 | 9.7 | 0.00 | 0.00 | 0.00 | 24 | 1004.6 |
| 20260504215923 | 21 | 173 | 1.6 | 12.9 | 0.00 | 0.00 | 0.00 | 24 | 1004.6 |
| 20260504215417 | 21 | 224 | 1.6 | 12.9 | 0.00 | 0.00 | 0.00 | 22 | 1004.5 |
| 20260504215137 | 21 | 333 | 1.6 | 8.0 | 0.00 | 0.00 | 0.00 | 22 | 1004.5 |
| 20260504214902 | 21 | 306 | 1.6 | 8.0 | 0.00 | 0.00 | 0.00 | 23 | 1004.6 |
| 20260504213859 | 21 | 228 | 1.6 | 12.9 | 0.00 | 0.00 | 0.00 | 22 | 1004.5 |
| 20260504213352 | 21 | 142 | 1.6 | 12.9 | 0.00 | 0.00 | 0.00 | 23 | 1004.5 |
| 20260504212847 | 21 | 217 | 0.0 | 3.2 | 0.00 | 0.00 | 0.00 | 23 | 1004.4 |
| 20260504212341 | 21 | 292 | 0.0 | 3.2 | 0.00 | 0.00 | 0.00 | 24 | 1004.6 |
| 20260504211834 | 21 | 319 | 0.0 | 3.2 | 0.00 | 0.00 | 0.00 | 24 | 1004.5 |
| 20260504211329 | 21 | 221 | 1.6 | 9.7 | 0.00 | 0.00 | 0.00 | 25 | 1004.5 |
| 20260504211039 | 21 | 18 | 1.6 | 9.7 | 0.00 | 0.00 | 0.00 | 24 | 1004.4 |
| 20260504210537 | 21 | 178 | 0.0 | 8.0 | 0.00 | 0.00 | 0.00 | 25 | 1004.4 |
| 20260504205811 | 21 | 293 | 1.6 | 11.3 | 0.00 | 0.00 | 0.00 | 23 | 1004.5 |
| 20260504205305 | 21 | 194 | 3.2 | 16.1 | 0.00 | 0.00 | 0.00 | 23 | 1004.4 |
| 20260504204759 | 21 | 257 | 3.2 | 16.1 | 0.00 | 0.00 | 0.00 | 25 | 1004.4 |
| 20260504204253 | 21 | 211 | 3.2 | 14.5 | 0.00 | 0.00 | 0.00 | 24 | 1004.3 |
| 20260504203747 | 21 | 273 | 1.6 | 11.3 | 0.00 | 0.00 | 0.00 | 24 | 1004.4 |
| 20260504203241 | 21 | 232 | 1.6 | 8.0 | 0.00 | 0.00 | 0.00 | 25 | 1004.4 |
| 20260504202957 | 21 | 201 | 1.6 | 12.9 | 0.00 | 0.00 | 0.00 | 24 | 1004.3 |
| 20260504202230 | 21 | 84 | 1.6 | 12.9 | 0.00 | 0.00 | 0.00 | 24 | 1004.3 |
| 20260504201723 | 21 | 40 | 3.2 | 8.0 | 0.00 | 0.00 | 0.00 | 24 | 1004.3 |
| 20260504201217 | 21 | 271 | 3.2 | 8.0 | 0.00 | 0.00 | 0.00 | 26 | 1004.4 |
| 20260504200931 | 21 | 203 | 1.6 | 8.0 | 0.00 | 0.00 | 0.00 | 26 | 1004.5 |
| 20260504200205 | 21 | 263 | 1.6 | 6.4 | 0.00 | 0.00 | 0.00 | 26 | 1004.5 |
| 20260504195659 | 21 | 247 | 3.2 | 14.5 | 0.00 | 0.00 | 0.00 | 25 | 1004.6 |
| 20260504195153 | 21 | 262 | 3.2 | 14.5 | 0.00 | 0.00 | 0.00 | 23 | 1004.5 |
| 20260504195134 | 21 | 350 | 3.2 | 14.5 | 0.00 | 0.00 | 0.00 | 24 | 1004.5 |
| 20260504194141 | 22 | 275 | 3.2 | 11.3 | 0.00 | 0.00 | 0.00 | 23 | 1004.6 |
| 20260504193635 | 22 | 313 | 3.2 | 11.3 | 0.00 | 0.00 | 0.00 | 24 | 1004.7 |
| 20260504193129 | 22 | 240 | 1.6 | 9.7 | 0.00 | 0.00 | 0.00 | 24 | 1004.6 |
| 20260504192623 | 22 | 225 | 3.2 | 11.3 | 0.00 | 0.00 | 0.00 | 24 | 1004.6 |
| 20260504192117 | 22 | 205 | 1.6 | 11.3 | 0.00 | 0.00 | 0.00 | 24 | 1004.6 |
| 20260504191611 | 21 | 211 | 1.6 | 9.7 | 0.00 | 0.00 | 0.00 | 25 | 1004.7 |
| 20260504191105 | 21 | 181 | 3.2 | 9.7 | 0.00 | 0.00 | 0.00 | 25 | 1004.6 |
| 20260504190559 | 21 | 245 | 3.2 | 24.1 | 0.00 | 0.00 | 0.00 | 26 | 1004.7 |
| 20260504190313 | 21 | 156 | 4.8 | 24.1 | 0.00 | 0.00 | 0.00 | 25 | 1004.6 |
| 20260504185547 | 21 | 174 | 3.2 | 22.5 | 0.00 | 0.00 | 0.00 | 25 | 1004.6 |
| 20260504185305 | 20 | 195 | 3.2 | 22.5 | 0.00 | 0.00 | 0.00 | 28 | 1004.8 |
| 20260504184535 | 20 | 315 | 3.2 | 16.1 | 0.00 | 0.00 | 0.00 | 27 | 1005.0 |
| 20260504184029 | 19 | 241 | 0.0 | 16.1 | 0.00 | 0.00 | 0.00 | 28 | 1004.9 |
| 20260504183522 | 18 | 38 | 0.0 | 0.0 | 0.00 | 0.00 | 0.00 | 31 | 1005.0 |
| 20260504183017 | 18 | 294 | 0.0 | 0.0 | 0.00 | 0.00 | 0.00 | 31 | 1005.1 |
| 20260504182511 | 18 | 268 | 0.0 | 0.0 | 0.00 | 0.00 | 0.00 | 30 | 1005.1 |
| 20260504182005 | 18 | 271 | 0.0 | 0.0 | 0.00 | 0.00 | 0.00 | 31 | 1005.0 |
| 20260504181505 | 18 | 277 | 0.0 | 0.0 | 0.00 | 0.00 | 0.00 | 29 | 1005.1 |
| 20260504181006 | 18 | 269 | 0.0 | 0.0 | 0.00 | 0.00 | 0.00 | 29 | 1005.0 |
| 20260504180503 | 18 | 305 | 0.0 | 0.0 | 0.00 | 0.00 | 0.00 | 29 | 1005.0 |
| 20260504180002 | 18 | 238 | 0.0 | 0.0 | 0.00 | 0.00 | 0.00 | 28 | 1004.9 |
| 20260504175501 | 18 | 305 | 0.0 | 0.0 | 0.00 | 0.00 | 0.00 | 27 | 1004.9 |
| 20260504174959 | 18 | 257 | 0.0 | 0.0 | 0.00 | 0.00 | 0.00 | 27 | 1004.9 |
| 20260504174500 | 19 | 280 | 0.0 | 0.0 | 0.00 | 0.00 | 0.00 | 26 | 1004.9 |
| 20260504173958 | 19 | 239 | 0.0 | 0.0 | 0.00 | 0.00 | 0.00 | 27 | 1004.9 |
| 20260504173725 | 18 | 212 | 0.0 | 0.0 | 0.00 | 0.00 | 0.00 | 27 | 1004.8 |
| 20260504172959 | 18 | 250 | 0.0 | 0.0 | 0.00 | 0.00 | 0.00 | 27 | 1004.9 |
| 20260504172459 | 18 | 273 | 0.0 | 0.0 | 0.00 | 0.00 | 0.00 | 25 | 1005.0 |
| 20260504171957 | 19 | 91 | 0.0 | 0.0 | 0.00 | 0.00 | 0.00 | 24 | 1005.1 |
| 20260504171726 | 20 | 51 | 0.0 | 0.0 | 0.00 | 0.00 | 0.00 | 24 | 1004.9 |
| 20260504171216 | 20 | 273 | 0.0 | 0.0 | 0.00 | 0.00 | 0.00 | 23 | 1004.9 |
| 20260504170500 | 19 | 213 | 0.0 | 0.0 | 0.00 | 0.00 | 0.00 | 25 | 1004.8 |
| 20260504150927 | 17 | 198 | 1.6 | 14.5 | 0.00 | 0.00 | 0.00 | 32 | 1005.7 |
| 20260504150428 | 17 | 157 | 1.6 | 6.4 | 0.00 | 0.00 | 0.00 | 32 | 1005.7 |
| 20260504140928 | 14 | 223 | 0.0 | 0.0 | 0.00 | 0.00 | 0.00 | 42 | 1006.5 |
| 20260504140425 | 13 | 241 | 0.0 | 0.0 | 0.00 | 0.00 | 0.00 | 41 | 1006.4 |
| 20260504130423 | 10 | 205 | 0.0 | 0.0 | 0.00 | 0.00 | 0.00 | 50 | 1007.3 |
| 20260504110228 | 7 | 209 | 0.0 | 0.0 | 0.00 | 0.00 | 0.00 | 54 | 1007.6 |
| 20260504100116 | 3 | 234 | 0.0 | 0.0 | 0.00 | 0.00 | 0.00 | 59 | 1007.5 |
| 20260504081916 | 2 | 229 | 0.0 | 0.0 | 0.00 | 0.00 | 0.00 | 58 | 1007.8 |
| 20260504081631 | 2 | 229 | 0.0 | 0.0 | 0.00 | 0.00 | 0.00 | 58 | 1007.8 |
| 20260504080903 | 2 | 229 | 0.0 | 0.0 | 0.00 | 0.00 | 0.00 | 58 | 1007.8 |
| 20260504080358 | 2 | 229 | 0.0 | 0.0 | 0.00 | 0.00 | 0.00 | 59 | 1007.8 |
| 20260504070245 | 1 | 225 | 0.0 | 0.0 | 0.00 | 0.00 | 0.00 | 61 | 1007.8 |
| 20260504060134 | 0 | 187 | 0.0 | 0.0 | 0.00 | 0.00 | 0.00 | 65 | 1007.4 |
| 20260504050558 | 0 | 197 | 0.0 | 0.0 | 0.00 | 0.00 | 0.00 | 66 | 1007.4 |
| 20260504045557 | 1 | 197 | 0.0 | 0.0 | 0.00 | 0.00 | 0.00 | 65 | 1007.4 |
| 20260504045316 | 1 | 197 | 0.0 | 0.0 | 0.00 | 0.00 | 0.00 | 65 | 1007.3 |
| 20260504044826 | 1 | 197 | 0.0 | 0.0 | 0.00 | 0.00 | 0.00 | 65 | 1007.3 |
| 20260504044054 | 1 | 197 | 0.0 | 0.0 | 0.00 | 0.00 | 0.00 | 64 | 1007.3 |
| 20260504043553 | 1 | 197 | 0.0 | 0.0 | 0.00 | 0.00 | 0.00 | 64 | 1007.3 |
| 20260504043052 | 1 | 197 | 0.0 | 0.0 | 0.00 | 0.00 | 0.00 | 64 | 1007.3 |
| 20260504042552 | 1 | 197 | 0.0 | 0.0 | 0.00 | 0.00 | 0.00 | 64 | 1007.3 |
| 20260504042054 | 1 | 197 | 0.0 | 0.0 | 0.00 | 0.00 | 0.00 | 63 | 1007.4 |
| 20260504041554 | 1 | 197 | 0.0 | 0.0 | 0.00 | 0.00 | 0.00 | 63 | 1007.3 |
| 20260504041054 | 1 | 197 | 0.0 | 0.0 | 0.00 | 0.00 | 0.00 | 63 | 1007.4 |
| 20260504040553 | 1 | 197 | 0.0 | 0.0 | 0.00 | 0.00 | 0.00 | 63 | 1007.3 |
| 20260504040053 | 1 | 249 | 0.0 | 0.0 | 0.00 | 0.00 | 0.00 | 63 | 1007.3 |
| 20260504035548 | 1 | 249 | 0.0 | 0.0 | 0.00 | 0.00 | 0.00 | 62 | 1007.3 |
| 20260504035304 | 2 | 249 | 0.0 | 0.0 | 0.00 | 0.00 | 0.00 | 62 | 1007.4 |
| 20260504034536 | 2 | 249 | 0.0 | 0.0 | 0.00 | 0.00 | 0.00 | 61 | 1007.2 |
| 20260504034030 | 2 | 249 | 0.0 | 0.0 | 0.00 | 0.00 | 0.00 | 61 | 1007.3 |
| 20260504033749 | 2 | 249 | 0.0 | 0.0 | 0.00 | 0.00 | 0.00 | 61 | 1007.2 |
| 20260504033021 | 2 | 249 | 0.0 | 0.0 | 0.00 | 0.00 | 0.00 | 62 | 1007.1 |
| 20260504032739 | 2 | 249 | 0.0 | 0.0 | 0.00 | 0.00 | 0.00 | 62 | 1007.1 |
| 20260504032020 | 2 | 249 | 0.0 | 0.0 | 0.00 | 0.00 | 0.00 | 62 | 1007.1 |
| 20260504031519 | 2 | 249 | 0.0 | 0.0 | 0.00 | 0.00 | 0.00 | 62 | 1007.1 |
| 20260504031016 | 2 | 249 | 0.0 | 0.0 | 0.00 | 0.00 | 0.00 | 62 | 1007.1 |
| 20260504030513 | 1 | 249 | 0.0 | 0.0 | 0.00 | 0.00 | 0.00 | 62 | 1007.1 |
| 20260504030010 | 1 | 249 | 0.0 | 0.0 | 0.00 | 0.00 | 0.00 | 63 | 1007.2 |
| 20260504025512 | 1 | 249 | 0.0 | 0.0 | 0.00 | 0.03 | 0.00 | 64 | 1007.1 |
| 20260504025012 | 1 | 249 | 0.0 | 0.0 | 0.00 | 0.03 | 0.00 | 64 | 1007.1 |
| 20260504024511 | 1 | 249 | 0.0 | 0.0 | 0.00 | 0.03 | 0.00 | 63 | 1007.1 |
| 20260504024229 | 1 | 249 | 0.0 | 0.0 | 0.00 | 0.03 | 0.00 | 64 | 1007.1 |
| 20260504023511 | 1 | 249 | 0.0 | 0.0 | 0.00 | 0.03 | 0.00 | 64 | 1007.2 |
| 20260504023012 | 1 | 249 | 0.0 | 0.0 | 0.00 | 0.03 | 0.00 | 64 | 1007.2 |
| 20260504022731 | 2 | 249 | 0.0 | 0.0 | 0.00 | 0.03 | 0.00 | 63 | 1007.2 |
| 20260504022006 | 2 | 249 | 0.0 | 0.0 | 0.00 | 0.03 | 0.00 | 62 | 1007.3 |
| 20260504021506 | 2 | 249 | 0.0 | 0.0 | 0.00 | 0.03 | 0.00 | 62 | 1007.2 |
| 20260504021007 | 2 | 249 | 0.0 | 0.0 | 0.00 | 0.03 | 0.00 | 61 | 1007.1 |
| 20260504020508 | 2 | 249 | 0.0 | 0.0 | 0.00 | 0.03 | 0.00 | 61 | 1007.2 |
| 20260504020008 | 2 | 249 | 0.0 | 0.0 | 0.00 | 0.03 | 0.00 | 61 | 1007.1 |
| 20260504015508 | 3 | 249 | 0.0 | 0.0 | 0.00 | 0.03 | 0.00 | 60 | 1007.2 |
| 20260504015228 | 3 | 249 | 0.0 | 0.0 | 0.00 | 0.03 | 0.00 | 60 | 1007.1 |
| 20260504014734 | 3 | 249 | 0.0 | 0.0 | 0.00 | 0.03 | 0.00 | 59 | 1007.1 |
| 20260504014008 | 3 | 249 | 0.0 | 0.0 | 0.00 | 0.03 | 0.00 | 58 | 1007.0 |
| 20260504013506 | 3 | 249 | 0.0 | 0.0 | 0.00 | 0.03 | 0.00 | 57 | 1006.9 |
| 20260504013007 | 3 | 249 | 0.0 | 0.0 | 0.00 | 0.03 | 0.00 | 57 | 1006.8 |
| 20260504012506 | 4 | 249 | 0.0 | 0.0 | 0.00 | 0.03 | 0.00 | 57 | 1006.8 |
| 20260504012006 | 4 | 249 | 0.0 | 0.0 | 0.00 | 0.05 | 0.00 | 55 | 1006.8 |
| 20260504011508 | 5 | 249 | 0.0 | 0.0 | 0.00 | 0.05 | 0.00 | 54 | 1006.8 |
| 20260504011006 | 5 | 249 | 0.0 | 0.0 | 0.00 | 0.05 | 0.00 | 53 | 1006.8 |
| 20260504010506 | 5 | 249 | 0.0 | 0.0 | 0.00 | 0.05 | 0.00 | 51 | 1006.8 |
| 20260504010005 | 5 | 249 | 0.0 | 0.0 | 0.00 | 0.08 | 0.00 | 50 | 1006.7 |
| 20260504005459 | 6 | 249 | 0.0 | 0.0 | 0.00 | 0.08 | 0.00 | 49 | 1006.8 |
| 20260504004953 | 6 | 249 | 0.0 | 0.0 | 0.00 | 0.08 | 0.00 | 46 | 1006.7 |
| 20260504004448 | 6 | 249 | 0.0 | 0.0 | 0.00 | 0.08 | 0.00 | 46 | 1006.5 |
| 20260504003941 | 6 | 249 | 0.0 | 0.0 | 0.00 | 0.08 | 0.00 | 45 | 1006.5 |
| 20260504003435 | 6 | 249 | 0.0 | 0.0 | 0.00 | 0.08 | 0.00 | 45 | 1006.4 |
| 20260504002929 | 6 | 249 | 0.0 | 0.0 | 0.00 | 0.10 | 0.00 | 43 | 1006.3 |
| 20260504002423 | 7 | 249 | 0.0 | 0.0 | 0.00 | 0.10 | 0.00 | 45 | 1006.3 |
| 20260504001917 | 7 | 249 | 0.0 | 0.0 | 0.00 | 0.10 | 0.00 | 44 | 1006.2 |
| 20260504001410 | 7 | 249 | 0.0 | 1.6 | 0.00 | 0.10 | 0.00 | 43 | 1006.1 |
| 20260504001121 | 7 | 153 | 0.0 | 1.6 | 0.00 | 0.10 | 0.00 | 41 | 1006.1 |
| 20260504000357 | 7 | 238 | 0.0 | 0.0 | 0.00 | 0.10 | 0.00 | 42 | 1006.0 |
| 20260503235851 | 7 | 238 | 0.0 | 0.0 | 0.00 | 0.10 | 0.00 | 42 | 1006.0 |
| 20260503235345 | 7 | 238 | 0.0 | 0.0 | 0.00 | 0.10 | 0.00 | 42 | 1006.0 |
| 20260503234838 | 7 | 261 | 0.0 | 0.0 | 0.00 | 0.10 | 0.00 | 40 | 1005.9 |
| 20260503234605 | 7 | 253 | 0.0 | 0.0 | 0.00 | 0.10 | 0.00 | 40 | 1005.8 |
| 20260503233827 | 8 | 250 | 0.0 | 0.0 | 0.00 | 0.10 | 0.00 | 39 | 1005.7 |
| 20260503233321 | 8 | 272 | 0.0 | 0.0 | 0.00 | 0.10 | 0.00 | 38 | 1005.6 |
| 20260503232815 | 8 | 261 | 0.0 | 0.0 | 0.00 | 0.10 | 0.00 | 37 | 1005.6 |
| 20260503232309 | 8 | 336 | 0.0 | 0.0 | 0.00 | 0.10 | 0.00 | 36 | 1005.5 |